Back to catalog

STARLINK-4428

AliveCommunicationsSSO
NORAD 53672·PAYLOAD·🇺🇸 United States

Launched Aug 31, 2022 from Vandenberg Space Force Base

Loading…

Next Passes (next 24 hours)

TLE

FreshSource: CelesTrak SupGP

Epoch: Sep 14, 2026, 21:24 UTC

1 53672C 22105AA  26257.89215278 -.00020290  00000+0 -14091-2 0  2575
2 53672  97.2840 132.0011 0002407  83.8229 159.1075 15.05656910    15

Track STARLINK-4428 in real time with AllMySat

Download on the App Store